User: anonymous   Login
Location: Caltech
(34.1382°N, 118.1253°W)
Time: 10:19:39
(UTC-08:00)
Language:

PAYLOAD A - Orbit

View from above orbital plane
View from above orbital plane
View from above satellite
View from above satellite

Ground track
Ground track

The orbit data is extracted from the following two-line orbital elements,

1 27840U 03031A   15024.91176378  .00000034  00000-0  24199-4 0  7536
2 27840 098.2182 049.4514 0097639 233.9343 193.1694 14.38769104607594
Epoch (UTC): 24 January 2015 21:52:56
Eccentricity: 0.0097639
inclination: 98.2182°
perigee height: 693 km
apogee height: 832 km
right ascension of ascending node: 49.4514°
argument of perigee: 233.9343°
revolutions per day: 14.38769104
mean anomaly at epoch: 193.1694°
orbit number at epoch: 60759

The dashed part of the orbit path shows where the satellite is in the earth's shadow,  

DLR